Retour au catalogue

TIGRISAT

ActifScienceSSO
NORAD 40043·PAYLOAD·🇮🇶 Iraq

Lancé Jun 19, 2014 depuis Dombarovsky

Loading…

Prochains Passages (prochaines 24 heures)

TLE

FraisSource: Space-Track

Époque: Sep 14, 2026, 09:04 UTC

1 40043U 14033AK  26257.37845701  .00001722  00000-0  20177-3 0  9991
2 40043  97.7961  45.4299 0049852 140.7285 219.7563 14.85431457658868

Suivez TIGRISAT en temps réel avec AllMySat

Download on the App Store